Regional Weather Roundup
Issued by NWS Sioux Falls, SD

Home | Current Version | Previous Version | Text Only | Print | Product List | Glossary Off
Versions: 1 2 3 4 5 6 7 8 9 10 11 12 13 14 15 16 17 18 19 20 21 22 23 24 25 26 27 28 29 30 31 32 33 34 35 36 37 38 39 40 41 42 43 44 45 46 47 48 49 50

000
ASUS43 KFSD 230202
RWRFSD

WEATHER ROUNDUP FOR SE SOUTH DAKOTA/SW MINNESOTA/NW IOWA
NATIONAL WEATHER SERVICE SIOUX FALLS SD
900 PM CDT TUE APR 22 2014

NOTE: "FAIR" INDICATES FEW OR NO CLOUDS BELOW 12,000 FEET WITH NO
SIGNIFICANT WEATHER AND OR OBSTRUCTIONS TO VISIBILITY.


SDZ038>040-050-052>070-230300-
SOUTHEAST SOUTH DAKOTA

CITY           SKY/WX    TMP DP  RH WIND       PRES   REMARKS
CHAMBERLAIN      N/A     65  33  30 SE22G29   29.78R
HURON          CLOUDY    60  31  33 SE16G24   29.85F
MADISON        CLOUDY    57  32  38 SE12G17   29.94S
MITCHELL         N/A     60  32  34 MISG      29.87F
SIOUX FALLS    MOCLDY    59  32  36 S15       29.95R
WINNER         FAIR      68  33  27 SE21      29.73S
YANKTON        PTCLDY    61  30  31 E15G21    29.91F
$$

MNZ071-072-080-081-089-090-097-098-230300-
SOUTHWEST MINNESOTA

CITY           SKY/WX    TMP DP  RH WIND       PRES   REMARKS
FAIRMONT       MOCLDY    54  32  43 E12       30.05R
JACKSON        CLOUDY    55  30  38 E9        30.02S
LUVERNE        CLOUDY    61  32  33 SE10      29.98R
MARSHALL       CLOUDY    57  34  41 E13       29.98R
MONTEVIDEO     MOCLDY    54  37  54 SE14G20   30.00S
PIPESTONE      CLOUDY    57  32  38 SE7       29.97R
REDWOOD FALLS  MOCLDY    55  32  41 E9        30.01S
TRACY          CLOUDY    57  34  42 E12       29.99S
WINDOM         CLOUDY    57  32  38 E13       30.01S
WORTHINGTON    CLOUDY    57  28  33 E9        30.02R
$$

IAZ001>003-012>014-020>022-031-032-NEZ013-014-SDZ071-230300-
NORTHWEST IOWA

CITY           SKY/WX    TMP DP  RH WIND       PRES   REMARKS
CHEROKEE       CLOUDY    58  35  42 SE5       30.00S
DENISON        CLOUDY    57  36  44 E7        29.98S
ESTHERVILLE    CLOUDY    56  36  47 E9        30.01S
SHELDON        CLOUDY    57  36  44 SE8       29.98S
SIOUX CITY     CLOUDY    62  35  36 SE12      29.97R
SPENCER        CLOUDY    58  36  43 SE8       30.00S
STORM LAKE     CLOUDY    54  36  50 SE6       30.02R
$$

ABBREVIATIONS USED IN REMARKS
   TC - TEMPERATURE IN CELSIUS
  WCI - WIND CHILL INDEX
   HX - HEAT INDEX
  VSB - VISIBILITY




USA.gov is the U.S. government's official web portal to all federal, state and local government web resources and services.